Date String (YYYY-MM-DD hh:mm:ss) UTC,Instrument flags,absolute air pressure of the measurement (hPa),sample flow rate (lpm),inlet stack bypass flow (lpm),air temperature of the measurement (°C),ambient temperature measured by the external sensor (°C),aerosol sample conditioner tube jacket temperature (°C),OPC LED temperature (°C),internal box temperature (°C),relative humidity of the measurement (%),span deviation,mass concentration of particles derived from Lorenz-Mie calculation of OPC scattering (μg/m³),mass concentration of particles derived from Lorenz-Mie calculation of OPC scattering (μg/m³),mass concentration of particles derived from Lorenz-Mie calculation of OPC scattering (μg/m³)
DateTimeUTC,F1_M11,P_M11,Q1_M11,Q2_M11,T1_M11,T2_M11,T3_M11,T4_M11,T5_M11,U1_M11,ZSPAN_M11,X0_M11,X2_M11,X1_M11
2023-09-19 04:00:00,SystemResetWarning,0828.7,5.00,000.00,027.9,026.5,000.0,036.2,029.5,19.0,0000.0,0003.35,0001.92,0001.55
2023-09-19 04:01:00,SystemResetWarning,0828.7,5.00,000.00,027.9,026.6,000.0,036.2,029.6,19.1,0000.0,0002.90,0001.90,0001.55
2023-09-19 04:02:00,SystemResetWarning,0828.7,5.00,000.00,027.9,026.7,000.0,036.3,029.6,19.1,0000.0,0002.65,0001.91,0001.55
2023-09-19 04:03:00,SystemResetWarning,0828.7,5.01,000.00,027.9,026.7,000.0,036.3,029.6,19.2,0000.0,0002.61,0001.90,0001.53
2023-09-19 04:04:00,SystemResetWarning,0828.7,5.00,000.00,028.0,026.8,000.0,036.3,029.7,19.2,0000.0,0003.32,0001.94,0001.53
2023-09-19 04:05:00,SystemResetWarning,0828.6,5.00,000.00,028.0,026.9,000.0,036.3,029.7,19.1,0000.0,0003.41,0001.96,0001.52
2023-09-19 04:06:00,SystemResetWarning,0828.6,5.00,000.00,028.0,026.9,000.0,036.3,029.7,19.7,0000.0,0003.36,0001.93,0001.50
2023-09-19 04:07:00,SystemResetWarning,0828.6,5.00,000.00,028.1,027.0,000.0,036.3,029.8,19.2,0000.0,0003.36,0001.91,0001.49
2023-09-19 04:08:00,SystemResetWarning,0828.6,5.00,000.00,028.1,027.0,000.0,036.4,029.8,19.1,0000.0,0003.38,0001.90,0001.48
2023-09-19 04:09:00,SystemResetWarning,0828.7,5.00,000.00,028.1,027.0,000.0,036.4,029.9,19.2,0000.0,0003.36,0001.90,0001.48
2023-09-19 04:10:00,SystemResetWarning,0828.6,5.00,000.00,028.2,027.1,000.0,036.4,029.9,19.1,0000.0,0003.46,0001.90,0001.46
2023-09-19 04:11:00,SystemResetWarning,0828.6,4.99,000.00,028.2,027.1,000.0,036.4,029.9,18.9,0000.0,0003.51,0001.90,0001.45
2023-09-19 04:12:00,SystemResetWarning,0828.6,4.99,000.00,028.2,026.9,000.0,036.4,029.9,18.8,0000.0,0003.53,0001.91,0001.45
2023-09-19 04:13:00,SystemResetWarning,0828.6,4.99,000.00,028.1,025.2,000.0,036.4,029.4,18.9,0000.0,0003.47,0001.89,0001.43
2023-09-19 04:14:00,SystemResetWarning,0828.6,5.02,000.00,028.0,024.2,000.0,036.3,029.2,19.1,0000.0,0003.66,0001.87,0001.43
2023-09-19 04:15:00,SystemResetWarning,0828.5,5.01,000.00,027.9,024.2,000.0,036.3,029.1,19.3,0000.0,0003.69,0001.84,0001.44
2023-09-19 04:16:00,SystemResetWarning,0828.5,5.00,000.00,027.8,024.5,000.0,036.3,029.0,19.6,0000.0,0003.53,0001.86,0001.45
2023-09-19 04:17:00,SystemResetWarning,0828.5,5.01,000.00,027.8,024.8,000.0,036.3,029.1,19.4,0000.0,0003.69,0001.92,0001.45
2023-09-19 04:18:00,SystemResetWarning,0828.5,5.00,000.00,027.8,025.2,000.0,036.3,029.2,19.3,0000.0,0003.74,0001.95,0001.46
2023-09-19 04:19:00,SystemResetWarning,0828.6,5.00,000.00,027.8,025.4,000.0,036.3,029.2,19.1,0000.0,0003.67,0001.93,0001.47
2023-09-19 04:20:00,SystemResetWarning,0828.6,5.00,000.00,027.8,025.7,000.0,036.2,029.3,19.0,0000.0,0003.75,0001.95,0001.48
2023-09-19 04:21:00,SystemResetWarning,0828.6,5.00,000.00,027.8,025.9,000.0,036.2,029.4,18.9,0000.0,0003.77,0001.97,0001.49
2023-09-19 04:22:00,SystemResetWarning,0828.5,5.00,000.00,027.8,026.1,000.0,036.2,029.4,18.8,0000.0,0004.03,0001.99,0001.49
2023-09-19 04:23:00,SystemResetWarning,0828.5,5.00,000.00,027.8,026.2,000.0,036.2,029.4,18.7,0000.0,0004.57,0001.97,0001.49
2023-09-19 04:24:00,SystemResetWarning,0828.4,5.00,000.00,027.8,026.3,000.0,036.2,029.5,18.7,0000.0,0005.08,0001.97,0001.50
2023-09-19 04:25:00,SystemResetWarning,0828.4,4.99,000.00,027.9,026.4,000.0,036.2,029.5,19.1,0000.0,0005.32,0001.97,0001.51
2023-09-19 04:26:00,SystemResetWarning,0828.4,4.99,000.00,027.9,026.5,000.0,036.2,029.5,18.8,0000.0,0004.51,0001.93,0001.49
2023-09-19 04:27:00,SystemResetWarning,0828.4,5.01,000.00,027.9,026.6,000.0,036.2,029.6,18.6,0000.0,0004.50,0001.88,0001.48
2023-09-19 04:28:00,SystemResetWarning,0828.4,5.01,000.00,027.9,026.7,000.0,036.3,029.6,18.7,0000.0,0004.41,0001.82,0001.46
2023-09-19 04:29:00,SystemResetWarning,0828.4,4.99,000.00,027.9,026.7,000.0,036.3,029.6,18.8,0000.0,0004.46,0001.82,0001.46
2023-09-19 04:30:00,SystemResetWarning,0828.4,5.00,000.00,028.0,026.8,000.0,036.3,029.7,19.0,0000.0,0004.53,0001.83,0001.45
2023-09-19 04:31:00,SystemResetWarning,0828.4,4.99,000.00,028.0,026.8,000.0,036.3,029.7,19.0,0000.0,0004.48,0001.81,0001.43
2023-09-19 04:32:00,SystemResetWarning,0828.4,5.00,000.00,028.0,026.9,000.0,036.3,029.7,19.0,0000.0,0004.36,0001.77,0001.41
2023-09-19 04:33:00,SystemResetWarning,0828.4,5.02,000.00,028.1,026.9,000.0,036.3,029.7,18.9,0000.0,0004.14,0001.74,0001.41
2023-09-19 04:34:00,SystemResetWarning,0828.3,4.99,000.00,028.1,026.9,000.0,036.4,029.8,18.8,0000.0,0003.52,0001.74,0001.41
2023-09-19 04:35:00,SystemResetWarning,0828.4,4.99,000.00,028.1,027.0,000.0,036.4,029.8,18.9,0000.0,0003.11,0001.74,0001.41
2023-09-19 04:36:00,SystemResetWarning,0828.4,5.00,000.00,028.1,027.0,000.0,036.4,029.8,19.1,0000.0,0002.69,0001.72,0001.41
2023-09-19 04:37:00,SystemResetWarning,0828.4,5.00,000.00,028.2,027.0,000.0,036.4,029.8,19.0,0000.0,0002.81,0001.72,0001.41
2023-09-19 04:38:00,SystemResetWarning,0828.4,5.00,000.00,028.2,027.0,000.0,036.4,029.9,19.3,0000.0,0002.80,0001.73,0001.42
2023-09-19 04:39:00,SystemResetWarning,0828.4,5.01,000.00,028.2,027.1,000.0,036.5,029.9,18.8,0000.0,0002.71,0001.73,0001.42
2023-09-19 04:40:00,SystemResetWarning,0828.4,5.00,000.00,028.2,027.1,000.0,036.5,030.0,18.6,0000.0,0002.78,0001.75,0001.43
2023-09-19 04:41:00,SystemResetWarning,0828.4,4.99,000.00,028.3,027.1,000.0,036.5,030.0,18.4,0000.0,0002.70,0001.73,0001.44
2023-09-19 04:42:00,SystemResetWarning,0828.4,5.00,000.00,028.3,027.2,000.0,036.5,030.0,18.8,0000.0,0002.66,0001.71,0001.44
2023-09-19 04:43:00,SystemResetWarning,0828.4,4.99,000.00,028.3,026.9,000.0,036.5,029.9,19.4,0000.0,0002.63,0001.71,0001.45
2023-09-19 04:44:00,SystemResetWarning,0828.3,4.99,000.00,028.2,025.1,000.0,036.5,029.5,19.5,0000.0,0002.64,0001.72,0001.46
2023-09-19 04:45:00,SystemResetWarning,0828.3,5.01,000.00,028.1,024.2,000.0,036.4,029.3,18.7,0000.0,0002.62,0001.71,0001.46
2023-09-19 04:46:00,SystemResetWarning,0828.3,5.01,000.00,028.0,024.2,000.0,036.4,029.2,18.8,0000.0,0002.65,0001.72,0001.45
2023-09-19 04:47:00,SystemResetWarning,0828.3,5.00,000.00,027.9,024.5,000.0,036.4,029.1,19.1,0000.0,0002.63,0001.73,0001.45
2023-09-19 04:48:00,SystemResetWarning,0828.3,4.99,000.00,027.8,024.8,000.0,036.4,029.1,18.9,0000.0,0002.62,0001.75,0001.45
2023-09-19 04:49:00,SystemResetWarning,0828.3,4.99,000.00,027.8,025.2,000.0,036.4,029.2,18.9,0000.0,0003.01,0001.77,0001.46
2023-09-19 04:50:00,SystemResetWarning,0828.3,5.00,000.00,027.8,025.5,000.0,036.3,029.3,18.9,0000.0,0003.06,0001.80,0001.47
2023-09-19 04:51:00,SystemResetWarning,0828.3,5.01,000.00,027.8,025.7,000.0,036.3,029.4,18.9,0000.0,0002.99,0001.80,0001.47
2023-09-19 04:52:00,SystemResetWarning,0828.3,5.01,000.00,027.8,026.0,000.0,036.3,029.4,18.4,0000.0,0003.02,0001.80,0001.46
2023-09-19 04:53:00,SystemResetWarning,0828.2,5.01,000.00,027.9,026.1,000.0,036.3,029.5,18.1,0000.0,0003.10,0001.81,0001.46
2023-09-19 04:54:00,SystemResetWarning,0828.2,5.00,000.00,027.9,026.3,000.0,036.3,029.5,18.7,0000.0,0003.15,0001.82,0001.45
2023-09-19 04:55:00,SystemResetWarning,0828.2,4.99,000.00,027.9,026.5,000.0,036.3,029.5,18.8,0000.0,0003.17,0001.83,0001.45
2023-09-19 04:56:00,SystemResetWarning,0828.2,5.00,000.00,027.9,026.6,000.0,036.3,029.6,18.3,0000.0,0003.14,0001.82,0001.45
2023-09-19 04:57:00,SystemResetWarning,0828.2,5.00,000.00,028.0,026.7,000.0,036.3,029.7,17.0,0000.0,0003.05,0001.79,0001.44
2023-09-19 04:58:00,SystemResetWarning,0828.2,5.01,000.00,028.0,026.7,000.0,036.3,029.7,16.9,0000.0,0003.05,0001.79,0001.44
2023-09-19 04:59:00,SystemResetWarning,0828.3,5.01,000.00,028.0,026.8,000.0,036.4,029.7,16.9,0000.0,0002.95,0001.78,0001.43
